Regional Weather Roundup
Issued by NWS New Orleans/Baton Rouge, LA

Home | Current Version | Previous Version | Text Only | Print | Product List | Glossary On
Versions: 1 2 3 4 5 6 7 8 9 10 11 12 13 14 15 16 17 18 19 20 21 22 23 24 25 26 27 28 29
000
ASUS44 KLIX 272111
RWRLIX
NEW ORLEANS REGIONAL WEATHER ROUNDUP
NATIONAL WEATHER SERVICE NEW ORLEANS LA
400 PM CDT TUE SEP 27 2016

NOTE: "FAIR" INDICATES FEW OR NO CLOUDS BELOW 12,000 FEET WITH NO
      SIGNIFICANT WEATHER AND/OR OBSTRUCTIONS TO VISIBILITY.
      SKY/WX - SKY CONDITION AND SIGNIFICANT WEATHER.
      TMP - AIR TEMPERATURE.     DP    - DEWPOINT TEMPERATURE.
      RH  - RELATIVE HUMIDITY.   PRES  - PRESSURE.
      HI  - HEAT INDEX.          WCI   - WIND CHILL INDEX.

*  THESE STATIONS ARE NOT NWS OR FAA STATIONS AND ARE NOT UNDER
   NWS QUALITY CONTROL.

LAZ038-040-048-061>063-065>067-069-272200-
SOUTHEAST LOUISIANA

CITY           SKY/WX    TMP DP  RH WIND       PRES   REMARKS
N.O. AUDUBON     N/A     86  73  66 MISG        N/A
N.O. INTL ARPT PTSUNNY   90  72  55 N9        29.90F HX  97
N.O. LAKEFRONT SUNNY     86  73  65 NW8       29.91F
N.O. DOWNTOWN*   N/A     86  71  60 VRB5      29.91F
RESERVE*         N/A     88  73  61 N3        29.90F HX  95
SLIDELL        MOSUNNY   88  71  57 N6        29.89F
BATON ROUGE    PTSUNNY   87  71  58 N8        29.92S
BOOTHVILLE     SUNNY     84  74  71 SW3       29.90F
BELLE CHASSE   MOSUNNY   89  72  56 VRB5      29.89F HX  96
BOGALUSA*        N/A     89  69  51 NE6       29.92F
GALLIANO*      NOT AVBL
NEW ROADS*       N/A     85  71  63 MISG      29.93S
GONZALES*        N/A     86  70  58 NW3       29.90F
HAMMOND*       PTSUNNY   91  66  43 NE5       29.90F
HOUMA*         MOSUNNY   86  73  66 NW5       29.90F
PORT FOURCHON* PTCLDY    84  73  70 W7        29.91F

$$

MSZ070-080>082-272200-
SOUTHERN MISSISSIPPI

CITY           SKY/WX    TMP DP  RH WIND       PRES   REMARKS
MCCOMB         PTSUNNY   86  68  54 N6        29.93F
GULFPORT       CLOUDY    85  75  72 SW7       29.89F
BILOXI         MOSUNNY   85  75  72 SW8       29.89F
PASCAGOULA     PTSUNNY   84  74  71 S6        29.89F
STENNIS ARPT*  PTSUNNY   84  70  61 CALM      29.90F

$$

COASTAL OBSERVATIONS
LAKE AND NEARSHORE STATIONS

STATION/POSITION TIME  TEMP    WIND        PRES    WAVE
                       AIR SEA DIR/SP/G            HT/PER
                 (UTC) (F)     (DEG/KT/KT) (MB)    (FT/S)
PASCAGOULA       2000   85     210/  8/ 10 1012.4
WAVELAND YACHT   2000   83 86  200/  6/ 10 1012.9
GRAND ISLE       2000   85 88   CALM  /  3 1013.3
SOUTHWEST PASS   2000          230/  8/ 10   N/A
NEW CANAL        2000   82 87  340/  2/  5 1012.5
SHELL BEACH      2000   83 88  360/  5/  7 1013.0

OFFSHORE STATIONS

STATION/POSITION TIME  TEMP    WIND        PRES    WAVE
                       AIR SEA DIR/SP/G            HT/PER
                 (UTC) (F)     (DEG/KT/KT) (MB)    (FT/S)
64 S DAUPHIN ISL 2000   80 86  280/ 19/ 31 1012.8

$$





USA.gov is the U.S. government's official web portal to all federal, state and local government web resources and services.